Flag for U.S.A. Weather past 2 weeks in Aspen, Colorado, U.S.A.

Now
54 °F

Partly sunny.


Feels Like: 51 °F
Forecast: 32 / 52 °F
Wind: 9 mph from Northwest

Location: Aspen-Pitkin County Airport

Current Time: Apr 27, 2015 at 3:25:48 PM

Latest Report: Apr 27, 2015 at 2:53 PM


Visibility: 10 mi

Pressure: 29.93 "Hg

Humidity: 40%

Dew point: 30 °F

Location of AspenLocation

Historic Weather in Aspen — Graph

°F

Aspen temperature yesterday

Maximum temperature yesterday: 45 °F (at 4:53 PM)
Minimum temperature yesterday: 34 °F (at 6:04 AM)
Average temperature yesterday: 40 °F

Past Weeks' High & Low Weather Summary

 TemperatureHumidityPressure
High63 °F (Apr 13, 3:53 PM)100% (Apr 16, 10:52 PM)30.16 "Hg (Apr 16, 10:52 PM)
Low20 °F (Apr 18, 1:53 AM)11% (Apr 14, 1:53 PM)29.48 "Hg (Apr 15, 5:53 AM)
Average39 °F62%29.84 "Hg
* Reported Apr 12 1:53 PM — Apr 27 1:53 PM, Aspen, Weather by CustomWeather, © 2015

Note: Actual official high and low records may vary slightly from our data, if they occured in-between our weather recording intervals... More about our weather records

Advertising

Aspen weather history for previous 24 hours

 ConditionsComfort  
Time TempWeatherWind HumidityBarometerVisibility
1:53 PM
Mon, Apr 27
53 °FMostly cloudy.8 mph38%29.93 "Hg10 mi
12:53 PM52 °FPartly sunny.8 mph45%29.93 "Hg10 mi
11:53 AM47 °FPartly sunny.6 mph59%29.97 "Hg10 mi
10:53 AM44 °FScattered clouds.6 mph63%30.00 "Hg10 mi
9:53 AM43 °FPartly sunny.6 mph68%30.00 "Hg10 mi
8:53 AM40 °FScattered clouds.No wind70%29.99 "Hg10 mi
7:53 AM35 °FScattered clouds.No wind82%30.00 "Hg10 mi
6:53 AM31 °FPassing clouds.3 mph92%29.99 "Hg10 mi
5:53 AM31 °FClear.No wind92%29.96 "Hg10 mi
4:53 AM32 °FPassing clouds.No wind96%29.91 "Hg10 mi
4:00 AM36 °FOvercast.3 mph92%30.05 "Hg10 mi
2:53 AM33 °FPassing clouds.No wind96%29.89 "Hg10 mi
1:53 AM36 °FPassing clouds.3 mph97%29.86 "Hg10 mi
12:53 AM37 °FMostly cloudy.No wind96%29.84 "Hg10 mi
11:53 PM
Sun, Apr 26
38 °FOvercast.No wind93%29.83 "Hg10 mi
11:01 PM38 °FMostly cloudy.No wind93%29.98 "Hg10 mi
9:53 PM39 °FOvercast.3 mph89%29.80 "Hg10 mi
8:53 PM41 °FMostly cloudy.7 mph86%29.76 "Hg10 mi
8:00 PM41 °FMore clouds than sun.6 mph89%29.90 "Hg10 mi
6:53 PM43 °FMostly cloudy.7 mph79%29.70 "Hg10 mi
5:53 PM43 °FLight rain. Overcast.7 mph76%29.68 "Hg10 mi
4:53 PM45 °FMostly cloudy.6 mph71%29.65 "Hg10 mi
3:53 PM43 °FCloudy.6 mph76%29.64 "Hg6 mi
Weather by CustomWeather, © 2015

See weather overviewHow to use our weather pages